Regional Weather Roundup
Issued by NWS

Home | Current Version | Previous Version | Text Only | Print | Product List | Glossary Off
Versions: 1 2 3 4 5 6 7 8 9 10 11 12 13 14 15 16 17 18 19 20 21 22 23 24 25 26 27 28 29 30 31 32 33 34 35 36 37 38 39 40 41 42 43 44 45 46 47 48 49 50

000
ASUS45 KCYS 272210
RWRWY

WYOMING REGIONAL WEATHER ROUNDUP
NATIONAL WEATHER SERVICE CHEYENNE WY
300 PM MST TUE JAN 27 2015

NOTE:  "FAIR" INDICATES FEW OR NO CLOUDS BELOW 12,000 FEET
WITH NO SIGNIFICANT WEATHER AND/OR OBSTRUCTIONS TO VISIBILITY.

WYZ001-272300-
YELLOWSTONE NATIONAL PARK

CITY           SKY/WX    TMP DP  RH WIND       PRES   REMARKS
LK YELLOWSTONE   N/A     38  21  50 VRB3      30.16S
W YELLOWSTONE  NOT AVBL

$$
WYZ002>013-054>058-071-098>099-272300-
NORTHERN WYOMING

CITY           SKY/WX    TMP DP  RH WIND       PRES   REMARKS
JACKSON        SUNNY     21  21 100 CALM      30.17F
CODY           FAIR      46  32  57 NE13      29.95F
GREYBULL       FAIR      35  28  75 W7        29.97F WCI  29
WORLAND        FAIR      34  27  75 SW3       29.96F
SHERIDAN       FAIR      53  34  48 NW7       29.89R
BUFFALO          N/A     64  26  23 NW8       29.91F
GILLETTE       FAIR      62  31  31 SW14      29.90S
HULETT           N/A    N/A N/A N/A MISG        N/A
NEWCASTLE      FAIR      64  27  24 SW12      29.96S

$$
WYZ014>020-022>026-101>103-272300-
CENTRAL WYOMING

CITY           SKY/WX    TMP DP  RH WIND       PRES   REMARKS
BIG PINEY      PTSUNNY   38  23  55 W6        30.18S WCI  33
PINEDALE       FAIR      37  23  56 CALM      30.18S
DUBOIS         FAIR      52  18  25 W18G25    30.06F
LANDER         FAIR      41  30  65 S3        30.03F
RIVERTON       FAIR      43  31  62 SW3       30.04F
CASPER         FAIR      52  28  39 SW16G33   30.03S
DOUGLAS        FAIR      66  22  18 W12G22    30.00S

$$
WYZ021-027>030-104>119-272300-
SOUTHERN WYOMING

CITY           SKY/WX    TMP DP  RH WIND       PRES   REMARKS
EVANSTON       FAIR      47  30  51 SW16      30.18F
KEMMERER       CLOUDY    41  28  60 W7        30.18F
FORT BRIDGER   CLOUDY    43  32  64 CALM      30.21S
ROCK SPRINGS   CLOUDY    45  27  49 W6        30.16S
DIXON          FAIR      51  28  41 SW5       30.24S
RAWLINS        FAIR      52  24  33 SW23G33   30.16F
SARATOGA       FAIR      52  23  32 SW16      30.17F
LARAMIE        FAIR      52  20  28 S8        30.15S
CHEYENNE       FAIR      65  19  17 W14       30.07F
TORRINGTON     FAIR      74  22  14 W13       29.97S
PINE BLUFFS    FAIR      70  19  14 NW6       30.04S

$$


USA.gov is the U.S. government's official web portal to all federal, state and local government web resources and services.